{"data":{"norad_id":49197,"intl_designator":"2021-083M","name":"ONEWEB-0328","alt_names":[],"object_type":"PAYLOAD","status":"ACTIVE","operator":null,"country":"UK","launch_date":"2021-09-14","launch_site_code":"TYMSC","launch_vehicle":null,"mission":null,"orbit_class":"UNKNOWN","rcs_meters":null,"size_class":null,"mass_kg":null,"dimensions":null,"purposes":["comms"],"wikipedia_slug":null,"has_3d_model":false,"image_url":null,"decayed_at":null,"tle_current":{"epoch":"2026-09-20T01:30:02.273184Z","epoch_age_seconds":63590,"freshness":"FRESH","line1":"1 49197U 21083M   26263.06252631 -.00000241  00000+0 -69392-3 0  9998","line2":"2 49197  87.8921 301.3382 0001774  97.1897 262.9434 13.13469495243359","mean_motion":13.13469495,"eccentricity":0.0001774,"inclination_deg":87.8921,"raan_deg":301.3382,"arg_perigee_deg":97.1897,"mean_anomaly_deg":262.9434,"bstar":-0.00069392,"rev_number":24335,"period_min":109.63330366496,"perigee_km":1208.4212505899,"apogee_km":1211.1134390515,"semimajor_km":7587.9043448207,"source":"CELESTRAK","updated_at":"2026-09-20T09:00:44.662644Z"}}}